Location: Krasnoyarskiy Pitomnik
(51.1333°N, 71.6167°E)
Time: 04:50:34
(UTC+00:00)

Transit 4A - Pass Details

Date: 19 April 2024
Orbit: 871 x 971 km, 66.8° (Epoch: 28 May)

Event Time Altitude Azimuth Distance (km) Brightness Sun altitude
Rises 15:09:49 0° 321° (NW) 3,477 12.4 -8.4°
Reaches altitude 10° 15:12:30 10° 329° (NNW) 2,532 11.3 -8.8°
Maximum altitude 15:17:56 38° 38° (NE) 1,304 8.7 -9.5°
Enters shadow 15:23:04 11° 105° (ESE) 2,435 9.5 -10.2°
